GW3210 Weather Reports


Display with metric or nautical units.
time (UTC)temp
F
wind
direction
speed
MPH
gust
MPH
rain 1hr
in
rain 24hr
in
rain mn
in
humidity
%
barometer
mb
20260904060617 54 113 1.0 2.0 0.00 0.31 0.30 80 1012.2
20260904055637 55 135 2.0 3.0 0.00 0.31 0.30 80 1012.1
20260904054617 54 135 3.0 4.0 0.00 0.31 0.30 79 1012.3
20260904053617 54 135 2.0 2.0 0.00 0.31 0.30 78 1012.3
20260904052617 54 135 1.0 1.0 0.00 0.31 0.30 78 1012.2
20260904051617 54 158 2.0 3.0 0.00 0.31 0.30 77 1012.2
20260904050637 54 113 1.0 2.0 0.00 0.31 0.30 77 1012.2
20260904045617 54 158 2.0 3.0 0.00 0.31 0.30 76 1012.1
20260904044617 54 135 3.0 4.0 0.00 0.31 0.30 76 1012.0
20260904043617 54 135 2.0 3.0 0.00 0.31 0.30 76 1012.1
20260904042617 54 135 2.0 3.0 0.00 0.31 0.30 76 1012.1
20260904041617 54 135 2.0 3.0 0.00 0.31 0.30 76 1012.1
20260904040617 54 135 2.0 3.0 0.00 0.31 0.30 76 1012.1
20260904035617 54 90 1.0 2.0 0.00 0.31 0.30 76 1012.1
20260904034657 54 68 2.0 3.0 0.00 0.31 0.30 76 1012.0
20260904033617 54 90 2.0 4.0 0.00 0.31 0.30 76 1011.9
20260904032636 54 90 2.0 3.0 0.00 0.31 0.30 76 1011.7
20260904031617 54 90 1.0 3.0 0.00 0.31 0.30 76 1011.7
20260904030637 54 90 1.0 3.0 0.00 0.31 0.30 76 1011.6
20260904025636 54 90 1.0 2.0 0.00 0.31 0.30 76 1011.6
20260904024616 55 113 1.0 2.0 0.00 0.31 0.30 76 1011.6
20260904023637 55 90 1.0 1.0 0.00 0.31 0.30 76 1011.5
20260904022616 55 113 1.0 4.0 0.00 0.31 0.30 76 1011.4
20260904021616 55 90 2.0 2.0 0.00 0.31 0.30 76 1011.4
20260904020657 55 90 2.0 3.0 0.00 0.31 0.30 76 1011.5
20260904015616 55 135 2.0 3.0 0.00 0.31 0.30 76 1011.5
20260904014616 55 113 2.0 2.0 0.00 0.31 0.30 76 1011.5
20260904013616 55 113 2.0 3.0 0.00 0.31 0.30 75 1011.6
20260904012616 55 90 2.0 3.0 0.00 0.31 0.30 75 1011.7
20260904011637 55 90 1.0 3.0 0.00 0.31 0.30 75 1011.8
20260904010617 55 113 1.0 3.0 0.00 0.31 0.30 75 1011.7
20260904005617 56 0.0 1.0 0.00 0.31 0.30 75 1011.7
20260904004616 56 0.0 1.0 0.00 0.32 0.30 76 1011.9
20260904003616 56 0.0 1.0 0.01 0.32 0.30 76 1011.9
20260904002616 57 68 1.0 2.0 0.02 0.32 0.30 75 1011.9
20260904001616 57 0.0 1.0 0.03 0.32 0.30 76 1011.8
20260904000616 57 135 1.0 2.0 0.03 0.32 0.30 75 1011.9
20260903235616 57 0.0 1.0 0.03 0.32 0.30 74 1011.8
20260903234616 57 0.0 1.0 0.03 0.32 0.30 73 1011.8
20260903233616 58 248 1.0 2.0 0.02 0.31 0.29 71 1011.9
20260903232617 60 225 2.0 4.0 0.01 0.30 0.28 68 1011.8
20260903231616 61 270 5.0 8.0 0.00 0.30 0.27 62 1011.8
20260903230637 62 315 2.0 3.0 0.00 0.31 0.27 62 1011.7
20260903225636 62 248 2.0 2.0 0.00 0.33 0.27 62 1011.8
20260903224617 62 0.0 0.0 0.00 0.33 0.27 65 1011.8
20260903223656 61 248 1.0 2.0 0.00 0.33 0.27 62 1011.9
20260903222616 61 135 2.0 3.0 0.00 0.33 0.27 63 1011.9
20260903221616 60 135 1.0 3.0 0.00 0.33 0.27 64 1012.0
20260903220616 60 180 2.0 5.0 0.00 0.33 0.27 65 1012.0
20260903215616 60 203 3.0 4.0 0.00 0.33 0.27 64 1012.0
20260903214616 60 180 4.0 6.0 0.00 0.34 0.27 64 1012.0
20260903213616 60 158 2.0 4.0 0.00 0.34 0.27 68 1012.1
20260903212616 59 203 2.0 5.0 0.00 0.34 0.27 66 1012.1
20260903211616 59 203 3.0 5.0 0.00 0.35 0.27 68 1012.1
20260903210616 59 158 3.0 5.0 0.00 0.36 0.27 69 1012.1
20260903205616 59 180 2.0 3.0 0.00 0.37 0.27 71 1012.0
20260903204636 59 113 2.0 4.0 0.00 0.38 0.27 71 1012.0
20260903203616 59 135 3.0 4.0 0.00 0.40 0.27 70 1012.0
20260903202616 59 135 3.0 8.0 0.00 0.43 0.27 71 1012.0
20260903201616 58 135 3.0 5.0 0.00 0.45 0.27 72 1011.9
20260903200636 59 180 3.0 4.0 0.00 0.47 0.27 72 1011.9
20260903195616 59 158 4.0 8.0 0.02 0.50 0.27 72 1012.0
20260903194616 59 180 2.0 3.0 0.10 0.51 0.27 75 1012.0
20260903193636 58 180 2.0 5.0 0.10 0.52 0.27 77 1012.1
20260903192616 57 248 4.0 7.0 0.10 0.53 0.27 76 1012.1
20260903191616 57 270 2.0 4.0 0.10 0.54 0.27 78 1012.0
20260903190635 57 135 2.0 4.0 0.10 0.55 0.27 77 1012.1
20260903185616 58 293 5.0 9.0 0.08 0.54 0.25 75 1012.1
20260903184615 59 203 2.0 2.0 0.00 0.48 0.17 72 1011.9
20260903183616 60 90 2.0 2.0 0.00 0.50 0.17 74 1011.9
20260903182615 59 68 2.0 3.0 0.00 0.52 0.17 76 1011.9
20260903181615 59 135 3.0 3.0 0.00 0.54 0.17 79 1012.0
20260903180616 59 90 2.0 3.0 0.00 0.57 0.17 79 1012.2
20260903175616 59 113 1.0 2.0 0.00 0.58 0.17 81 1012.1
20260903174615 58 0.0 2.0 0.00 0.60 0.17 84 1012.1
20260903173615 57 113 2.0 3.0 0.00 0.61 0.17 84 1012.0
20260903172615 56 0.0 1.0 0.00 0.61 0.17 84 1012.0
20260903171615 55 135 2.0 3.0 0.02 0.61 0.17 83 1012.3
20260903170616 55 90 1.0 3.0 0.04 0.61 0.17 84 1012.1
20260903165615 54 90 3.0 6.0 0.05 0.61 0.17 83 1012.2
20260903164636 54 90 2.0 4.0 0.06 0.61 0.17 83 1012.2
20260903163655 53 90 3.0 4.0 0.06 0.61 0.17 83 1012.2
20260903162635 53 158 3.0 4.0 0.06 0.61 0.17 83 1012.4
20260903161615 53 113 3.0 4.0 0.04 0.59 0.15 83 1012.3
20260903160635 53 135 1.0 2.0 0.03 0.57 0.13 82 1012.4
20260903155615 53 135 2.0 3.0 0.02 0.56 0.12 82 1012.4
20260903154615 53 113 1.0 2.0 0.02 0.55 0.11 82 1012.4
20260903153615 53 113 1.0 2.0 0.04 0.55 0.11 82 1012.2
20260903152615 53 135 2.0 2.0 0.05 0.55 0.11 81 1012.3
20260903151615 53 113 1.0 2.0 0.05 0.55 0.11 81 1012.3
20260903150615 53 135 4.0 7.0 0.04 0.54 0.10 81 1012.1
20260903145637 53 135 2.0 3.0 0.06 0.54 0.10 81 1012.2
20260903144615 53 135 2.0 7.0 0.07 0.53 0.09 81 1012.2
20260903143615 53 113 3.0 6.0 0.05 0.51 0.07 81 1012.0
20260903142615 53 135 1.0 2.0 0.04 0.50 0.06 80 1011.7
20260903141615 53 158 1.0 2.0 0.05 0.50 0.06 79 1011.6
20260903140615 53 135 2.0 4.0 0.05 0.50 0.06 79 1011.7
20260903135617 53 158 2.0 3.0 0.03 0.48 0.04 79 1011.6
20260903134615 53 158 1.0 2.0 0.01 0.46 0.02 79 1011.5
20260903133617 53 135 1.0 2.0 0.01 0.46 0.02 78 1011.5
20260903132617 53 135 1.0 2.0 0.01 0.46 0.02 78 1011.5
20260903131617 53 0.0 1.0 0.00 0.45 0.01 77 1011.5
20260903130617 53 113 1.0 3.0 0.00 0.45 0.01 76 1011.4
20260903125617 53 113 2.0 4.0 0.00 0.45 0.01 76 1011.3
20260903124617 53 113 1.0 3.0 0.00 0.45 0.01 76 1011.4
20260903123618 53 113 1.0 2.0 0.00 0.45 0.01 76 1011.4
20260903122637 53 135 3.0 4.0 0.00 0.45 0.01 76 1011.4
20260903121617 53 135 2.0 3.0 0.00 0.45 0.01 75 1011.5
20260903120617 53 135 1.0 2.0 0.00 0.45 0.01 76 1011.6
20260903115657 53 135 3.0 5.0 0.00 0.45 0.01 76 1011.5
20260903114617 53 135 3.0 5.0 0.00 0.45 0.01 76 1011.6
20260903113617 53 135 3.0 5.0 0.00 0.45 0.01 77 1011.6
20260903112617 53 135 3.0 5.0 0.00 0.45 0.01 78 1011.4
20260903111617 53 113 2.0 4.0 0.00 0.45 0.01 79 1011.6
20260903110617 53 158 2.0 3.0 0.00 0.45 0.01 81 1011.5
20260903105617 53 135 3.0 5.0 0.00 0.45 0.01 82 1011.5
20260903104616 53 135 2.0 3.0 0.00 0.45 0.01 81 1011.5
20260903103617 53 135 2.0 3.0 0.00 0.45 0.01 82 1011.7
20260903102636 53 135 2.0 4.0 0.00 0.45 0.01 82 1011.6
20260903101617 54 135 1.0 2.0 0.00 0.45 0.01 82 1011.5
20260903100636 54 135 2.0 3.0 0.00 0.45 0.01 82 1011.4
20260903095637 54 90 2.0 4.0 0.00 0.45 0.01 82 1011.3
20260903094637 54 113 1.0 2.0 0.00 0.45 0.01 82 1011.4
20260903093637 54 113 2.0 3.0 0.00 0.45 0.01 82 1011.4
20260903092617 54 135 1.0 2.0 0.00 0.45 0.01 82 1011.5
20260903091616 54 158 1.0 2.0 0.00 0.45 0.01 81 1011.5
20260903090616 54 113 2.0 3.0 0.01 0.45 0.01 81 1011.5
20260903085617 54 90 1.0 2.0 0.01 0.45 0.01 80 1011.4
20260903084616 54 135 1.0 2.0 0.01 0.45 0.01 80 1011.5
20260903083617 54 90 2.0 3.0 0.01 0.45 0.01 80 1011.6
20260903082616 54 158 1.0 2.0 0.01 0.45 0.01 78 1011.6
20260903081617 54 135 1.0 2.0 0.01 0.45 0.01 78 1011.8
20260903080616 54 158 2.0 3.0 0.00 0.44 0.00 78 1011.8
20260903075638 54 135 3.0 5.0 0.00 0.44 0.00 78 1011.7
20260903074616 54 158 3.0 5.0 0.00 0.44 0.00 77 1011.7
20260903073617 54 135 5.0 8.0 0.01 0.44 0.00 78 1011.7
20260903072616 54 158 4.0 8.0 0.01 0.44 0.00 77 1011.5
20260903065617 55 158 1.0 2.0 0.01 0.44 0.44 77 1011.6
20260903064617 55 225 2.0 5.0 0.01 0.44 0.44 77 1011.5
20260903063617 55 203 2.0 5.0 0.00 0.43 0.43 77 1011.5
20260903062637 55 180 2.0 4.0 0.00 0.43 0.43 77 1011.6
20260903061617 55 180 2.0 4.0 0.00 0.43 0.43 79 1011.6